map of NGP home
NGP - Airport
Location
City:  Corpus Christi, Texas, United States
Name:Corpus Christi NAS/Truax Field
ICAO:KNGP
IATA:NGP
FAA LID:NGP

Details
Type:Airport (Airfield)
Use:Military
Latitude:2741'34"N (27.692701)
Longitude:9717'25"W (-97.290376)
Datum:WGS 1984
Elevation:18 ft (5 m)
Variation:3.52E (WMM2015v2 magnetic declination)
-0.10 annual change
Runways:4
Longest:8002 × 200 ft (2439 × 61 m), paved

Time
Time Zone:UTC-6 (DST-5)
Local Time:

Weather
METAR:KNGP 041356Z 14005KT 3/4SM BR BKN003 OVC016 18/18 A2990 RMK AO2 SLP124 T01830183 $

Related Locations
Nearby:
Farthest:RRG: 11105 mi / 17871 km
Plaine Corail [Sir Gatan Duval Airport (Plaine Corail Airport)], Rodrigues Island, MU

Find:

   beyond  
but within

Other Information
Maps:
NOTAMs:
Links:
Sources:

  
  • flag of United States
  • flag of Texas
  • flag of Corpus Christi
  

Airport Diagram

Airport diagram for NGP

Airport diagram PDF from FAA

Sectional Chart

Flight Planning
at skyvector.com

Satellite Image

Google Maps Satellite view

 

Copyright © 2004-2019 Karl L. Swartz. All rights reserved.
The Great Circle Mapper name and logo are trademarks of the Great Circle Mapper.
All other trademarks mentioned herein belong to their respective owners.
Please see credits for attibutions and further copyright information.

  Follow gcmap on Facebook Follow gcmap on Twitter GCmap on LinkedIn

hCard Microformat

Geo Microformat